sat.trackr.live / text

‹ back to catalog

STARLINK-31477

NORAD 59314 · 2024-056U

PAYLOAD ACTIVE UNKNOWN

§ Identity

Operator
Country
US
Launch date
2024-03-24
Launch site
AFETR
Launch vehicle
Mass (kg)
RCS (m²)

Purposes: comms

External: N2YO · Heavens-Above · Gunter

§ Orbital elements

Epoch: 2026-05-25T01:51:29.398176Z

Period
94.27 min
Inclination
43.0038°
Eccentricity
0.0001542
Mean motion
15.27570115 rev/d
Perigee alt
482.0 km
Apogee alt
484.1 km
Semi-major
6,861.2 km
B*
1.1783e-5
RAAN
151.8031°
Arg perigee
281.2522°
Mean anomaly
78.8156°
Rev number
12,292

§ Raw data

STARLINK-314771 59314U 24056U   26145.07742359  .00000062  00000+0  11783-4 0  99952 59314  43.0038 151.8031 0001542 281.2522  78.8156 15.27570115122920

JSON: /api/v1/satellites/59314 · /tle

For live sub-satellite position, see the globe view (requires WebGL).

§ Visibility from observer

Set your observer location to see the next 7 days of passes ≥ 10°. The values pass through the URL so the page stays shareable.

No JS? Fill the form by hand. The geolocation button needs JavaScript.